This is the latest recevied weather packets stored in our database for station/object OK2JCZ-6. If no packets are shown the sender has not sent any weather packets the latest 10 day(s).
| Time | Temp. | Humidity | Pressure | Rain* | Wind** | Luminosity | Snow |
|---|---|---|---|---|---|---|---|
| 1787988850 | 23.33° C | 48% | 1016.6 hPa | 0 mm | - | - | - |
| 1787988550 | 23.33° C | 49% | 1016.6 hPa | 0 mm | - | - | - |
| 1787988250 | 23.33° C | 48% | 1016.6 hPa | 0 mm | - | - | - |
| 1787987950 | 23.33° C | 48% | 1016.5 hPa | 0 mm | - | - | - |
| 1787987650 | 23.33° C | 50% | 1016.4 hPa | 0 mm | - | - | - |
| 1787987350 | 22.78° C | 51% | 1016.4 hPa | 0 mm | - | - | - |
| 1787987050 | 22.78° C | 51% | 1016.4 hPa | 0 mm | - | - | - |
| 1787986750 | 22.78° C | 43% | 1016.4 hPa | 0 mm | - | - | - |
| 1787986454 | 22.78° C | 54% | 1016.3 hPa | 0 mm | - | - | - |
| 1787986150 | 21.67° C | 53% | 1016.3 hPa | 0 mm | - | - | - |
| 1787985850 | 21.67° C | 56% | 1016.4 hPa | 0 mm | - | - | - |
| 1787985550 | 21.11° C | 56% | 1016.4 hPa | 0 mm | - | - | - |
| 1787985250 | 21.11° C | 57% | 1016.4 hPa | 0 mm | - | - | - |
| 1787984950 | 20° C | 59% | 1016.4 hPa | 0 mm | - | - | - |
| 1787984650 | 20° C | 60% | 1016.4 hPa | 0 mm | - | - | - |
| 1787984350 | 19.44° C | 61% | 1016.4 hPa | 0 mm | - | - | - |
| 1787983750 | 18.33° C | 62% | 1016.4 hPa | 0 mm | - | - | - |
| 1787983450 | 18.33° C | 65% | 1016.3 hPa | 0 mm | - | - | - |
| 1787982250 | 16.67° C | 66% | 1016.4 hPa | 0 mm | - | - | - |
| 1787981350 | 18.33° C | 65% | 1016 hPa | 0 mm | - | - | - |
| 1787981050 | 18.33° C | 65% | 1016 hPa | 0 mm | - | - | - |
| 1787980750 | 17.78° C | 67% | 1016.1 hPa | 0 mm | - | - | - |
| 1787980450 | 17.78° C | 68% | 1016.2 hPa | 0 mm | - | - | - |
| 1787979850 | 16.11° C | 71% | 1016.4 hPa | 0 mm | - | - | - |
| 1787979550 | 15° C | 72% | 1016.5 hPa | 0 mm | - | - | - |
* Rain latest hour (hover to see other rain measurements)
** Current wind speed in m/s (hover to see current wind gust speed)